Starlink 3672

operational
NORAD ID: 51974 Int'l Des: 2022-025 Owner: SPXS Country: US Constellation: starlink
LEOCIRCULARSTARLINK_TYPE

About Starlink 3672

Description loading...

Live Position

Loading 3D Globe...

Upcoming Passes

Altitude History

Altitude vs Time

uPlot chart will show altitude changes over time

Two-Line Element Set

1 51974U 22025U 25350.35147385 .00007850 00000-0 54524-3 0 9991
2 51974 53.0542 45.0042 0001545 89.3534 270.7632 15.06406382208359
Epoch: Dec 16, 2025 • Age: 14 hours

Current Status

Altitude 551.4 km
Velocity 7.59 km/s
Sub-Earth Point -14.52°S, 177.09°E
Launch Date Mar 9, 2022
Age 3.7 years
Type internet

Technical Details

Classification Payload
Mass 297.00 kg
Dry Mass 275.00 kg
Total Mass 297.00 kg
Length 0.20 m
Diameter 2.80 m
Span 9.00 m
Shape Box + pan
Manufacturer SPXS
Bus Type Starlink
Phase Status In Orbit
Owner/State SPXS/US

Large Constellations

Loading constellations...